Dewar Lakes, Nunavut

1:43 AM EDT on April 25, 2017 (GMT -0400)
Dewar Lakes

Weather History for CWUW - May, 2013

Change the Weather History Date:

Thursday, May 2, 2013

  Actual Average Record
Temperature  
Mean Temperature -0 °F -  
Max Temperature 5 °F 21 °F 26 °F (2003)
Min Temperature -6 °F 11 °F -14 °F (1999)
Degree Days  
Heating Degree Days 66    
Moisture  
Dew Point -    
Average Humidity    
Maximum Humidity    
Minimum Humidity    
Precipitation  
Precipitation 0.00 in 0.03 in - ()
Sea Level Pressure  
Sea Level Pressure 30.01 in    
Wind  
Wind Speed 23 mph ()    
Max Wind Speed 36 mph    
Max Gust Speed 34 mph    
Visibility 1.6 miles    
Events      
Averages and records for this station are not official NWS values.
T = Trace of Precipitation, MM = Missing Value Source: Averaged Metar Reports

Daily Weather History Graph

Daily Weather History Graph

Search for Another Location

Airport or City:

Trip Planner

Search our weather history database for the weather conditions in past years. The results will help you decide how hot, cold, wet, or windy it might be!

Date:

Astronomy

May. 02, 2013 Rise Set
Actual Time 3:27 AM EDT 9:59 PM EDT
Civil Twilight 1:14 AM EDT 12:09 AM EDT
Nautical Twilight Sun does not set Sun does not set
Astronomical Twilight Sun does not set Sun does not set
Moon 3:09 AM EDT (5/2) 10:56 AM EDT (5/2)
Length of Visible Light 22h 55m
Length of Day
18h 31m
Waning Gibbous, 48% of the Moon is Illuminated
May 2
Waning Gibbous
May 9
New
May 18
First Quarter
May 25
Full
May 31
Last Quarter

Hourly Weather History & Observations

Time (EDT) Temp. Windchill Dew Point Humidity Pressure Visibility Wind Dir Wind Speed Gust Speed Precip Events Conditions
12:00 AM 5.0 °F -16.2 °F - N/A% 29.96 in 1.0 mi North 21.9 mph 29.9 mph N/A   Clear
12:01 AM 5.0 °F -16.2 °F - N/A% 29.77 in 1.0 mi North 21.9 mph 29.9 mph N/A   Clear
12:18 AM 5.0 °F -17.9 °F - N/A% 29.75 in 1.0 mi North 26.5 mph - N/A   Clear
12:44 AM 5.0 °F -18.3 °F - N/A% 29.74 in 1.1 mi North 27.6 mph - N/A   Clear
12:46 AM 5.0 °F -17.9 °F - N/A% 29.74 in 1.0 mi North 26.5 mph - N/A   Clear
1:00 AM 5.0 °F -16.2 °F - N/A% 29.91 in 1.5 mi North 21.9 mph 29.9 mph N/A   Clear
1:09 AM 5.0 °F -17.1 °F - N/A% 29.73 in 1.4 mi North 24.2 mph 29.9 mph N/A   Clear
1:17 AM 5.0 °F -18.3 °F - N/A% 29.72 in 1.0 mi North 27.6 mph - N/A   Clear
1:25 AM 5.0 °F -17.5 °F - N/A% 29.72 in 1.5 mi North 25.3 mph - N/A   Clear
2:00 AM 4 °F - - % 29.89 in 2 mi North 24.2 mph - -  
2:00 AM 3.2 °F -19.0 °F - N/A% 29.89 in 1.6 mi North 23.0 mph - N/A   Clear
2:03 AM 3.2 °F -19.9 °F - N/A% 29.70 in 1.2 mi North 25.3 mph - N/A   Clear
2:20 AM 3.2 °F -20.3 °F - N/A% 29.69 in 1.0 mi North 26.5 mph - N/A   Clear
2:35 AM 3.2 °F -20.3 °F - N/A% 29.69 in 1.1 mi NNW 26.5 mph 32.2 mph N/A   Clear
2:51 AM 3.2 °F -19.5 °F - N/A% 29.69 in 2.2 mi NNW 24.2 mph - N/A   Clear
2:59 AM 3.2 °F -19.0 °F - N/A% 29.68 in 4.0 mi North 23.0 mph - N/A   Clear
3:00 AM 3.2 °F -19.0 °F - N/A% 29.87 in 4.0 mi North 23.0 mph - N/A   Clear
3:04 AM 3.2 °F -19.9 °F - N/A% 29.68 in 2.5 mi North 25.3 mph - N/A   Clear
3:10 AM 3.2 °F -20.3 °F - N/A% 29.68 in 1.2 mi North 26.5 mph - N/A   Clear
3:37 AM 3.2 °F -19.5 °F - N/A% 29.68 in 2.8 mi NNW 24.2 mph - N/A   Clear
3:47 AM 3.2 °F -19.9 °F - N/A% 29.68 in 4.0 mi NNW 25.3 mph - N/A   Clear
3:54 AM 1.4 °F -21.4 °F - N/A% 29.68 in 3.0 mi North 23.0 mph - N/A   Clear
4:00 AM 1.4 °F -23.5 °F - N/A% 29.86 in 2.2 mi NNW 28.8 mph - N/A   Clear
4:38 AM -0.4 °F -26.0 °F - N/A% 29.69 in 1.2 mi NW 28.8 mph - N/A   Clear
4:41 AM -0.4 °F -26.7 °F - N/A% 29.69 in 1.0 mi NW 31.1 mph - N/A   Clear
4:43 AM -2.2 °F -29.6 °F - N/A% 29.69 in 0.6 mi NW 32.2 mph - N/A   Clear
5:00 AM -2 °F - - % 29.89 in 0 mi NW 31.1 mph - -  
5:00 AM -2.2 °F -29.2 °F - N/A% 29.89 in 0.5 mi NW 31.1 mph - N/A   Clear
5:48 AM -2.2 °F -28.8 °F - N/A% 29.72 in 1.0 mi NNW 29.9 mph - N/A   Clear
6:00 AM -2.2 °F -29.6 °F - N/A% 29.92 in 2.2 mi NNW 32.2 mph - N/A   Clear
6:20 AM -2.2 °F -29.6 °F - N/A% 29.73 in 1.2 mi NNW 32.2 mph - N/A   Clear
6:23 AM -2.2 °F -29.6 °F - N/A% 29.73 in 1.0 mi NNW 32.2 mph - N/A   Clear
6:39 AM -2.2 °F -28.4 °F - N/A% 29.74 in 1.5 mi NNW 28.8 mph 34.5 mph N/A   Clear
7:00 AM -2.2 °F -28.4 °F - N/A% 29.94 in 1.6 mi NNW 28.8 mph 34.5 mph N/A   Clear
7:24 AM -0.4 °F -27.1 °F - N/A% 29.74 in 1.4 mi NNW 32.2 mph - N/A   Clear
7:42 AM -0.4 °F -28.1 °F - N/A% 29.75 in 1.6 mi NW 35.7 mph - N/A   Clear
7:44 AM -0.4 °F -27.8 °F - N/A% 29.75 in 1.2 mi NW 34.5 mph - N/A   Clear
8:00 AM -1 °F - - % 29.97 in 2 mi NW 28.8 mph - -  
8:00 AM -2.2 °F -27.1 °F - N/A% 29.97 in 2.4 mi NW 25.3 mph 32.2 mph N/A   Clear
8:11 AM -2.2 °F -24.7 °F - N/A% 29.78 in 9.0 mi NNW 19.6 mph 25.3 mph N/A   Clear
9:00 AM -2.2 °F -22.9 °F - N/A% 30.01 in 9.0 mi NW 16.1 mph - N/A   Clear
10:00 AM -0.4 °F -23.3 °F - N/A% 30.04 in 3.5 mi WNW 21.9 mph - N/A   Clear
10:02 AM -0.4 °F - - N/A% 29.85 in 3.0 mi North - - N/A   Clear
11:00 AM -2 °F - - % 30.08 in 3 mi WNW 20.7 mph - -  
11:00 AM -2.2 °F -24.7 °F - N/A% 30.08 in 2.8 mi WNW 19.6 mph - N/A   Clear
11:11 AM -2.2 °F -23.5 °F - N/A% 29.89 in 3.0 mi WNW 17.3 mph - N/A   Clear
11:18 AM -2.2 °F -22.9 °F - N/A% 29.89 in 3.0 mi WNW 16.1 mph - N/A   Clear
11:26 AM -2.2 °F -25.2 °F - N/A% 29.89 in 1.4 mi WNW 20.7 mph - N/A   Clear
11:30 AM -2.2 °F -26.7 °F - N/A% 29.89 in 0.8 mi WNW 24.2 mph - N/A   Clear
11:31 AM -2.2 °F -26.7 °F - N/A% 29.89 in 0.6 mi WNW 24.2 mph - N/A   Clear
11:41 AM -2.2 °F -27.1 °F - N/A% 29.90 in 0.5 mi WNW 25.3 mph - N/A   Clear
11:47 AM -2.2 °F -27.1 °F - N/A% 29.90 in 0.4 mi WNW 25.3 mph - N/A   Clear
12:00 PM -2.2 °F -28.0 °F - N/A% 30.11 in 0.2 mi WNW 27.6 mph - N/A   Clear
12:10 PM -2.2 °F -28.8 °F - N/A% 29.92 in 0.1 mi West 29.9 mph - N/A   Clear
1:00 PM -2.2 °F -29.2 °F - N/A% 30.15 in 0.1 mi West 31.1 mph - N/A   Clear
2:00 PM -3 °F - - % 30.19 in 0 mi West 31.1 mph - -  
2:00 PM -2.2 °F -29.6 °F - N/A% 30.19 in 0.1 mi West 32.2 mph - N/A   Clear
3:00 PM -4.0 °F -30.4 °F - N/A% 30.24 in 0.1 mi West 27.6 mph - N/A   Clear
4:00 PM -4.0 °F -30.4 °F - N/A% 30.28 in 0.1 mi West 27.6 mph - N/A   Clear
5:00 PM -4 °F - - % 30.32 in 0 mi West 27.6 mph - -  
5:00 PM -4.0 °F -30.0 °F - N/A% 30.32 in 0.1 mi West 26.5 mph - N/A   Clear
5:51 PM -4.0 °F -28.6 °F - N/A% 30.14 in 0.2 mi West 23.0 mph - N/A   Clear
6:00 PM -4.0 °F -30.0 °F - N/A% 30.35 in 0.2 mi West 26.5 mph - N/A   Clear
7:00 PM -4.0 °F -28.6 °F - N/A% 30.38 in 0.4 mi West 23.0 mph - N/A   Overcast
7:50 PM -5.8 °F -32.4 °F - N/A% 30.18 in 0.1 mi West 26.5 mph - N/A   Clear
8:00 PM -5 °F - - % 30.39 in 0 mi West 26.5 mph - -  
8:00 PM -5.8 °F -32.4 °F - N/A% 30.39 in 0.1 mi West 26.5 mph - N/A   Clear
9:00 PM -5.8 °F -31.0 °F - N/A% 30.41 in 0.1 mi West 23.0 mph - N/A   Clear
9:29 PM -5.8 °F -31.5 °F - N/A% 30.19 in 0.2 mi West 24.2 mph - N/A   Overcast
9:43 PM -5.8 °F -29.4 °F - N/A% 30.20 in 0.8 mi West 19.6 mph - N/A   Overcast
9:55 PM -5.8 °F -28.8 °F - N/A% 30.21 in 1.5 mi West 18.4 mph - N/A   Overcast
10:00 PM -5.8 °F -29.9 °F - N/A% 30.43 in 1.5 mi West 20.7 mph - N/A   Overcast
10:01 PM -5.8 °F -29.4 °F - N/A% 30.21 in 1.4 mi West 19.6 mph - N/A   Overcast
10:09 PM -5.8 °F -28.2 °F - N/A% 30.22 in 1.0 mi West 17.3 mph - N/A   Overcast
10:11 PM -5.8 °F -28.8 °F - N/A% 30.22 in 0.6 mi West 18.4 mph - N/A   Clear
10:30 PM -5.8 °F -28.2 °F - N/A% 30.22 in 1.0 mi West 17.3 mph - N/A   Overcast
10:40 PM -5.8 °F -27.5 °F - N/A% 30.22 in 1.2 mi West 16.1 mph - N/A   Clear
10:47 PM -5.8 °F -26.8 °F - N/A% 30.23 in 1.0 mi West 15.0 mph - N/A   Overcast
10:59 PM -5.8 °F -26.8 °F - N/A% 30.23 in 1.1 mi West 15.0 mph - N/A   Overcast
11:00 PM -6 °F - - % 30.45 in 1 mi West 15.0 mph - -   Overcast
11:00 PM -5.8 °F -26.8 °F - N/A% 30.45 in 1.2 mi West 15.0 mph - N/A   Overcast
11:06 PM -5.8 °F -27.5 °F - N/A% 30.23 in 1.4 mi West 16.1 mph - N/A   Overcast
11:09 PM -5.8 °F -27.5 °F - N/A% 30.23 in 1.4 mi West 16.1 mph - N/A   Clear
11:11 PM -5.8 °F -27.5 °F - N/A% 30.23 in 2.4 mi West 16.1 mph - N/A   Clear
11:16 PM -5.8 °F -26.8 °F - N/A% 30.23 in 1.2 mi West 15.0 mph - N/A   Clear
11:22 PM -5.8 °F -26.8 °F - N/A% 30.24 in 1.1 mi West 15.0 mph - N/A   Clear
11:25 PM -5.8 °F -26.0 °F - N/A% 30.24 in 1.2 mi West 13.8 mph - N/A   Clear
11:30 PM -5.8 °F -26.8 °F - N/A% 30.24 in 1.4 mi West 15.0 mph - N/A   Mostly Cloudy
11:32 PM -5.8 °F -26.8 °F - N/A% 30.24 in 1.4 mi WSW 15.0 mph - N/A   Overcast
11:36 PM -5.8 °F -26.0 °F - N/A% 30.23 in 2.5 mi WSW 13.8 mph - N/A   Overcast
11:38 PM -5.8 °F -26.0 °F - N/A% 30.24 in 2.8 mi WSW 13.8 mph - N/A   Overcast
11:49 PM -5.8 °F -27.5 °F - N/A% 30.24 in 3.5 mi WSW 16.1 mph - N/A   Overcast
11:51 PM -5.8 °F -27.5 °F - N/A% 30.24 in 3.5 mi WSW 16.1 mph - N/A   Overcast
11:54 PM -5.8 °F -27.5 °F - N/A% 30.23 in 2.6 mi WSW 16.1 mph - N/A   Mostly Cloudy
11:56 PM -5.8 °F -26.8 °F - N/A% 30.23 in 2.4 mi WSW 15.0 mph - N/A   Mostly Cloudy
11:57 PM -5.8 °F -26.8 °F - N/A% 30.23 in 2.1 mi WSW 15.0 mph - N/A   Clear